Weather History for Montreal Mirabel, QC

Change the Weather History Date:

Wednesday, November 13, 2013

  Actual Average Record
Temperature  
Mean Temperature 24 °F -  
Max Temperature 32 °F 37 °F 57 °F (2005)
Min Temperature 15 °F 25 °F 12 °F (1996)
Degree Days  
Heating Degree Days 42    
Moisture  
Dew Point 14 °F    
Average Humidity 66    
Maximum Humidity 79    
Minimum Humidity 50    
Precipitation  
Precipitation 0.00 in - - ()
Sea Level Pressure  
Sea Level Pressure 30.20 in    
Wind  
Wind Speed 7 mph ()    
Max Wind Speed 13 mph    
Max Gust Speed 23 mph    
Averages and records for this station are not official NWS values.
T = Trace of Precipitation, MM = Missing Value Source: Averaged Metar Reports

Daily Weather History Graph

Daily Weather History Graph

Search for Another Location

Airport:

Trip Planner

Search our weather history database for the weather conditions in past years. The results will help you decide how hot, cold, wet, or windy it might be!

Date:

Astronomy

Nov. 13, 2013 Rise Set
Actual Time 6:53 AM EST 4:27 PM EST
Civil Twilight 6:21 AM EST 4:59 PM EST
Nautical Twilight 5:45 AM EST 5:35 PM EST
Astronomical Twilight 5:10 AM EST 6:10 PM EST
Moon 2:23 PM EST (11/13) 2:31 AM EST (11/13)
Length of Visible Light 10h 38m
Length of Day
9h 33m
Waxing Gibbous, 84% of the Moon is Illuminated
Nov 13
Waxing Gibbous
Nov 17
Full
Nov 25
Last Quarter
Dec 2
New
Dec 9
First Quarter

Hourly Weather History & Observations

Time (EST) Temp. Windchill Dew Point Humidity Pressure Visibility Wind Dir Wind Speed Gust Speed Precip Events Conditions
12:00 AM 19.4 °F 10.4 °F 12.2 °F 74% 30.27 in 25.0 mi West 6.9 mph - N/A   Partly Cloudy
1:00 AM 19.4 °F 12.8 °F 12.2 °F 74% 30.28 in 25.0 mi SW 4.6 mph - N/A   Partly Cloudy
2:00 AM 19.4 °F 11.5 °F 12.2 °F 74% 30.28 in 25.0 mi WSW 5.8 mph - N/A   Partly Cloudy
3:00 AM 17.6 °F 9.3 °F 12.2 °F 79% 30.28 in 25.0 mi WSW 5.8 mph - N/A   Partly Cloudy
4:00 AM 17.6 °F 7.3 °F 12.2 °F 79% 30.28 in 25.0 mi WSW 8.1 mph - N/A   Partly Cloudy
5:00 AM 17.6 °F 8.2 °F 12.2 °F 79% 30.30 in 25.0 mi West 6.9 mph - N/A   Partly Cloudy
6:00 AM 17.6 °F 7.3 °F 10.4 °F 73% 30.31 in 25.0 mi SW 8.1 mph - N/A   Partly Cloudy
7:00 AM 15.8 °F 7.2 °F 10.4 °F 79% 30.32 in 45.0 mi WSW 5.8 mph - N/A   Partly Cloudy
8:00 AM 17.6 °F 8.2 °F 10.4 °F 73% 30.32 in 45.0 mi WSW 6.9 mph - N/A   Partly Cloudy
9:00 AM 19.4 °F 10.4 °F 10.4 °F 68% 30.32 in 45.0 mi WSW 6.9 mph 18.4 mph N/A   Partly Cloudy
10:00 AM 21.2 °F 9.5 °F 6.8 °F 54% 30.32 in 45.0 mi West 11.5 mph 21.9 mph N/A   Partly Cloudy
11:00 AM 24.8 °F 15.3 °F 8.6 °F 50% 30.30 in 45.0 mi WSW 9.2 mph 18.4 mph N/A   Mostly Cloudy
12:00 PM 24.8 °F 14.6 °F 10.4 °F 54% 30.27 in 45.0 mi WSW 10.4 mph - N/A   Mostly Cloudy
1:00 PM 24.8 °F 14.6 °F 10.4 °F 54% 30.24 in 45.0 mi WSW 10.4 mph 21.9 mph N/A   Overcast
1:27 PM 24.8 °F 13.4 °F 10.4 °F 54% 30.23 in 25.0 mi WSW 12.7 mph 23.0 mph N/A Snow Light Snow Showers
2:00 PM 24.8 °F 13.4 °F 14.0 °F 64% 30.22 in 45.0 mi WSW 12.7 mph 23.0 mph N/A   Overcast
3:00 PM 26.6 °F 16.8 °F 14.0 °F 59% 30.20 in 40.0 mi WSW 10.4 mph 21.9 mph N/A Snow Light Snow Showers
4:00 PM 26.6 °F 17.5 °F 14.0 °F 59% 30.16 in 45.0 mi SW 9.2 mph 20.7 mph N/A   Overcast
5:00 PM 26.6 °F 19.1 °F 15.8 °F 64% 30.14 in 25.0 mi SW 6.9 mph - N/A Snow Light Snow Showers
6:00 PM 28.4 °F 23.3 °F 15.8 °F 59% 30.12 in 25.0 mi SW 4.6 mph - N/A Snow Light Snow Showers
6:30 PM 28.4 °F 22.2 °F 17.6 °F 64% 30.10 in 25.0 mi SSW 5.8 mph - N/A   Overcast
7:00 PM 28.4 °F 20.4 °F 19.4 °F 69% 30.08 in 25.0 mi SW 8.1 mph - N/A   Overcast
8:00 PM 30.2 °F 20.2 °F 21.2 °F 69% 30.04 in 25.0 mi SW 12.7 mph - N/A   Overcast
9:00 PM 30.2 °F 20.8 °F 21.2 °F 69% 30.00 in 25.0 mi SW 11.5 mph 18.4 mph N/A   Overcast
10:00 PM 32.0 °F 23.6 °F 21.2 °F 64% 29.96 in 25.0 mi SW 10.4 mph 21.9 mph N/A   Mostly Cloudy
11:00 PM 32.0 °F 24.2 °F 21.2 °F 64% 29.94 in 25.0 mi SSW 9.2 mph - N/A   Overcast